#timestamp,LO_Frequency,Hit,StdDev 
1583733615.3,286047002.5,N
1583733635.2,286047003.9,N
1583733655.0,286047004.4,N
1583733655.9,286047004.4,N
1583733675.8,286047002.2,N
1583733695.6,286047002.5,N
1583733715.4,286047001.6,N
1583733735.3,286047004.1,N
1583733755.1,286047005.8,Y
1583733775.9,286047002.5,P
1583733795.7,286046998.2,P
1583733815.5,286046996.9,N
1583733835.4,286046998.5,N
1583733855.2,286047000.9,N
1583733875.0,286047000.0,N
1583733875.9,286047000.0,N
1583733895.8,286047002.7,N
1583733915.6,286047001.2,N
1583733935.5,286047000.0,N
1583733955.3,286047000.9,N
1583733975.1,286047000.5,N
1583733995.9,286046998.1,N
1583734015.7,286046996.9,N
1583734035.5,286047001.2,N
1583734055.4,286046998.9,N
1583734075.2,286047001.0,N
1583734095.1,286046998.8,N
1583734096.0,286046998.8,N
1583734115.8,286046999.1,N
1583734135.6,286046999.7,N
1583734155.5,286046999.9,N
1583734175.3,286047002.2,N
1583734195.2,286047000.5,N
1583734215.9,286046999.7,N
1583734235.7,286047001.4,N
1583734255.6,286047000.0,N
1583734275.4,286047002.5,N
1583734295.2,286047003.6,N
1583734315.1,286047005.6,Y
1583734316.0,286047005.6,P
1583734335.8,286047005.4,N
1583734355.7,286047006.0,N
1583734375.5,286047002.9,N
1583734395.3,286047004.0,N
1583734415.2,286047001.5,N
1583734435.0,286047003.7,N
1583734435.9,286047003.7,N
1583734455.8,286047002.6,N
1583734475.6,286047000.1,N
1583734495.4,286047000.6,N
1583734515.3,286047000.2,N
1583734535.1,286047002.6,N
1583734555.9,286046999.8,N
1583734575.7,286047000.7,N
1583734595.5,286046999.7,N
1583734615.4,286046999.7,N
1583734635.2,286047000.5,N
1583734655.0,286047002.3,N
1583734655.9,286047002.3,N
1583734675.8,286047000.5,N
1583734695.6,286046996.8,N
1583734715.5,286046999.4,N
1583734735.3,286046998.9,N
1583734755.1,286047002.8,N
1583734775.9,286046999.8,N
1583734795.7,286046998.8,N
1583734815.5,286046996.9,N
1583734835.4,286046999.6,N
1583734855.2,286047002.8,N
1583734875.1,286047001.2,N
1583734876.0,286047001.2,N
1583734895.8,286047000.7,N
1583734915.6,286047001.2,N
1583734935.5,286046998.5,N
1583734955.3,286047000.6,N
1583734975.2,286047000.5,N
1583734995.9,286046998.1,N
1583735015.7,286047000.3,N
1583735035.6,286047000.0,N
1583735055.4,286046998.5,N
1583735075.2,286046996.6,N
1583735095.1,286046997.0,N
1583735096.0,286046997.0,N
1583735115.8,286047001.1,N
1583735135.7,286047002.8,N
1583735155.5,286046999.7,N
1583735175.3,286047000.8,N
1583735195.2,286046996.7,N
1583735215.0,286046996.8,N
1583735215.9,286046996.8,N
1583735235.8,286046998.7,N
1583735255.6,286047000.1,N
1583735275.4,286047002.8,N
1583735295.3,286047000.3,N
1583735315.1,286046998.5,N
1583735335.9,286047002.7,N
1583735355.7,286047000.8,N
1583735375.5,286047002.3,N
1583735395.4,286046999.9,N
1583735415.2,286047001.8,N
1583735435.0,286047002.7,N
1583735435.9,286047002.7,N
1583735455.8,286047002.5,N
1583735475.6,286047002.1,N
1583735495.5,286047001.5,N
1583735515.3,286047002.1,N
1583735535.1,286046999.1,N
1583735555.9,286046997.7,N
1583735575.7,286046998.0,N
1583735595.6,286046999.5,N
1583735615.4,286046997.1,N
1583735635.2,286046997.2,N
1583735655.1,286046999.4,N
1583735656.0,286046999.4,N
1583735675.8,286046998.3,N
1583735695.7,286047002.7,N
1583735715.5,286047000.8,N
1583735735.3,286047000.2,N
1583735755.2,286047001.3,N
1583735775.0,286047000.2,N
1583735775.9,286047000.2,N
1583735795.8,286047000.3,N
1583735815.6,286046999.0,N
1583735835.4,286046998.4,N
1583735855.3,286047000.5,N
1583735875.1,286046999.9,N
1583735895.9,286047004.0,N
1583735915.7,286047003.1,N
1583735935.5,286047001.7,N
1583735955.4,286047003.8,N
1583735975.2,286047000.8,N
1583735995.1,286046998.3,N
1583735996.0,286046998.3,N
1583736015.8,286046998.1,N
1583736035.6,286047000.8,N
1583736055.5,286047000.6,N
1583736075.3,286047000.3,N
1583736095.2,286047001.8,N
1583736115.9,286047001.2,N
1583736135.7,286047000.3,N
1583736155.6,286046998.2,N
1583736175.4,286046997.3,N
1583736195.2,286046995.2,N
1583736215.1,286046993.7,Y
1583736216.0,286046993.7,P
1583736235.8,286046996.4,N
1583736255.7,286046997.6,N
1583736275.5,286046996.6,N
1583736295.3,286046999.1,N
1583736315.2,286046998.7,N
1583736335.0,286046997.5,N
1583736335.9,286046997.5,N
1583736355.8,286046999.2,N
1583736375.6,286046996.1,N
1583736395.4,286046997.5,N
1583736415.3,286046996.9,N
1583736435.1,286046999.3,N
1583736455.9,286046997.0,N
1583736475.7,286046996.6,N
1583736495.5,286046997.2,N
1583736515.4,286046998.9,N
1583736535.2,286046999.6,N
1583736555.0,286046998.2,N
1583736555.9,286046998.2,N
1583736575.8,286046996.9,N
1583736595.6,286046999.1,N
1583736615.5,286046996.6,N
1583736635.3,286046996.7,N
1583736655.1,286046997.5,N
1583736675.9,286046998.9,N
1583736695.7,286047000.1,N
1583736715.5,286046998.6,N
1583736735.4,286046997.1,N
1583736755.2,286046998.8,N
1583736775.1,286046998.1,N
1583736776.0,286046998.1,N
1583736795.8,286046998.1,N
1583736815.7,286047000.3,N
1583736835.5,286047002.6,N
1583736855.3,286047001.5,N
1583736875.2,286047002.5,N
1583736895.0,286047001.0,N
1583736895.9,286047001.0,N
1583736915.7,286047000.9,N
1583736935.6,286047000.3,N
1583736955.4,286047000.3,N
1583736975.3,286047001.0,N
1583736995.1,286047000.9,N
1583737015.8,286047002.3,N
1583737035.7,286047001.1,N
1583737055.5,286047000.1,N
1583737075.4,286047003.7,N
1583737095.2,286047003.7,N
1583737115.0,286047001.5,N
1583737115.9,286047001.5,N
1583737135.8,286047002.7,N
1583737155.6,286047001.1,N
1583737175.5,286046998.1,N
1583737195.3,286047000.6,N
